Other Surface Observations
Issued by NWS

Home | Current Version | Previous Version | Text Only | Print | Product List | Glossary On
Versions: 1 2 3 4 5 6 7 8 9 10 11 12 13 14 15 16 17 18 19 20 21 22 23 24 25 26 27 28 29 30 31 32 33 34 35 36 37 38 39 40 41 42 43 44 45 46 47 48 49 50
000
SXUS52 KTAE 310518
OSOTAE
OSOTAE
North Florida/South Alabama/Southwest Georgia Weather Roundup
National Weather Service Tallahassee Florida
1200 AM EST SAT JAN 31 2015

Note: "fair" indicates few or no clouds below 12,000 feet with no
significant weather and/or obstructions to visibility.

!FLZ017-115-028-034-025-310600
...North Florida...

CITY           SKY/WX    TMP DP  RH WIND       PRES   REMARKS
TALLAHASSEE    PTCLDY    41  30  65 CALM      30.31R
APALACHICOLA   CLEAR     46  35  65 N7        30.30F WCI  42
PERRY          CLEAR     37  33  87 CALM      30.31S
CROSS CITY       N/A     38  33  82 N3        30.28F
JACKSONVILLE   MOCLDY    44  32  62 N6        30.28R WCI  41
$$

!FLZ112-006-005-002-011-310600
...Florida Panhandle...

CITY           SKY/WX    TMP DP  RH WIND       PRES   REMARKS
MARIANNA       MOCLDY    46  29  51 N6        30.31F WCI  43
BONIFAY        FAIR      46  28  49 N5        30.33F WCI  44
PANAMA CITY NW FAIR      40  35  83 NW3       30.32S
TYNDALL AFB    PTCLDY    49  34  57 N6        30.32F
TYND DRONE APT FAIR      47  38  71 N10       30.31S WCI  42
DE FUNIAK SPR  FAIR      44  28  53 N6        30.33F WCI  40
EGLIN AFB      MOCLDY    45  29  53 N8        30.33F WCI  40
DESTIN         PTCLDY    50  33  52 N7        30.34S
HURLBURT       PTCLDY    43  31  63 N6        30.33S WCI  39
CRESTVIEW      MOCLDY    38  31  76 CALM      30.35F
PENSACOLA      PTCLDY    47  31  53 N8        30.34S WCI  43
$$

!ALZ063-066-310600
...South Alabama...

CITY           SKY/WX    TMP DP  RH WIND       PRES   REMARKS
DOTHAN         MOCLDY    42  26  53 N7        30.35F WCI  38
OZARK CAIRNS   MOCLDY    44  24  45 N10       30.32F WCI  39
FT RUCKER HELI MOCLDY    45  24  43 N7        30.32F WCI  41
RUCKER HELI 3  FAIR      43  26  49 N6        30.34F WCI  40
RUCKER HELI 2  FAIR      45  24  43 N7        30.32F WCI  41
FLORALA APT    MOCLDY    37  31  78 CALM      30.35S
ANDALUSIA      MOCLDY    47  26  44 CALM      30.34S
TROY           MOCLDY    42  25  50 N7        30.35S WCI  38
EUFALA         FAIR      42  25  50 CALM      30.33F
MOBILE         PTCLDY    42  31  64 N5        30.35F WCI  39
$$

!GAZ120>161-310600
...Southwest and South Central Georgia...

CITY           SKY/WX    TMP DP  RH WIND       PRES   REMARKS
THOMASVILLE    FAIR      45  30  57 N5        30.31F WCI  42
BAINBRIDGE     MOCLDY    48  30  49 N7        30.32S
MOODY AFB      MOCLDY    43  28  56 N9        30.30S WCI  37
VALDOSTA       MOCLDY    44  30  57 N9        30.30S WCI  39
MOULTRIE       MOCLDY    45  30  57 N5        30.31F WCI  42
BLAKELY        MOCLDY    45  30  57 N5        30.33S WCI  42
ALBANY         MOCLDY    45  23  42 N7        30.35S WCI  41
TIFTON         FAIR      41  28  60 N6        30.32R WCI  37
FITZGERALD     FAIR      45  21  39 N7        30.34S WCI  41
CORDELE        FAIR      42  24  49 N3        30.35S
AMERICUS       FAIR      39  23  52 N5        30.35S WCI  36
HOMERVILLE     FAIR      45  32  61 N3        30.31S
$$

!GMZ750-755-770-775-310600
...Coastal and Buoy Obs...

STATION/POSITION TIME  TEMP    WIND        PRES    VSBY  WAVE
                       AIR SEA DIR/SP/G                  HT/PER
                 (UTC) (F)     (DEG/KT/KT) (MB)    (MI)  (FT/S)
KEATON BEACH     0500   46      10/  3/  4 1026.0F
CEDAR KEY        0500   51      20/  6/ 10 1025.7R
C TOWER          0500   56      30/ 21/ 23 1025.4F
APALACHICOLA BUO 0500   61 67   30/ 17/ 21 1024.7S         4/ 4
PANAMA CITY BUOY 0442   62 69   50/ 19/ 21 1025.2F         4/ 5
MOBILE BUOY      0411   59 68   40/ 17/ 23 1026.7F         4/ 5
ORANGE BCH AL BU 0500   55 62   20/ 17/ 19 1026.6F         2/ 3
$$



USA.gov is the U.S. government's official web portal to all federal, state and local government web resources and services.